OpenBCM V1.08-5-g2f4a (Linux)

Packet Radio Mailbox

IZ3LSV

[San Dona' di P. JN]

 Login: GUEST





  
I0OJJ  > KEPS     20.04.25 02:25l 355 Lines 16924 Bytes #29 (0) @ AMSAT
BID : ORB25110.1
Read: GUEST
Subj: 2Line Orbital Elements 25110.AMSAT
Path: IZ3LSV<I0OJJ
Sent: 250420/0025z @:I0OJJ.ITA.EU [Rome] obcm1.08-6-g5b69
From: I0OJJ @ I0OJJ.ITA.EU (Gustavo)
To:   KEPS @ AMSAT
X-Info: This message was generated automatically


QST de W1STR

AMSAT Orbital Elements for Amateur Satellites in TLE Format
From Orbital Analysis Office
New England Sci-Tech STEM Education Center
Natick, MA April 20, 2025
To all radio amateurs


These element sets describe the orbits of various satellites 
in use by the amateur radio community. For details see:
www.amsat.org/keplerian-elements-formats/

A daily update of element sets is available at:
www.amsat.org/tle/daily-bulletin.txt
or without bulletin text:
www.amsat.org/tle/dailytle.txt


AO-07
1 07530U 74089B   25109.00741887 -.00000041  00000-0  34709-4 0  9998
2 07530 101.9950 112.7200 0011989 219.1099 162.1989 12.53688312307605
UO-11
1 14781U 84021B   25108.86712902  .00002718  00000-0  29326-3 0  9990
2 14781  97.7504  76.2807 0008868 137.9902 222.1997 14.89180594214947
AO-27
1 22825U 93061C   25109.16794370  .00000230  00000-0  10514-3 0  9991
2 22825  98.7410 170.4563 0007273 262.1260  97.9097 14.30777173646630
FO-29
1 24278U 96046B   25108.55457143  .00000015  00000-0  47880-4 0  9995
2 24278  98.5811   9.2841 0350815 117.3073 246.4244 13.53244295415986
NOAA-15
1 25338U 98030A   25109.83511181  .00000313  00000-0  14617-3 0  9995
2 25338  98.5401 136.1773 0011076 143.0800 217.1145 14.26945467401160
GO-32
1 25397U 98043D   25108.91836899  .00000195  00000-0  10468-3 0  9996
2 25397  98.9674  86.9697 0001695  37.8945 322.2352 14.24297132391156
ISS
1 25544U 98067A   25109.83885864  .00017165  00000-0  31101-3 0  9996
2 25544  51.6357 236.0368 0005356  56.6188 303.5313 15.49720884506119
NO-44
1 26931U 01043C   25109.51057907  .00000414  00000-0  18611-3 0  9999
2 26931  67.0502 259.8760 0005588 270.9933  89.0528 14.31700662229958
SO-50
1 27607U 02058C   25108.84739171  .00002490  00000-0  32885-3 0  9997
2 27607  64.5558   0.2033 0050138 346.3279  13.6464 14.81443943201778
CO-55
1 27844U 03031E   25108.96417969  .00000624  00000-0  29095-3 0  9999
2 27844  98.6783 117.9007 0009209 344.9858  15.1046 14.23943280131327
CO-57
1 27848U 03031J   25107.97469925  .00000589  00000-0  27935-3 0  9993
2 27848  98.6810 116.9692 0009567   5.2276 354.9000 14.23284440130889
RS-22
1 27939U 03042A   25109.84875757  .00002295  00000-0  37207-3 0  9997
2 27939  98.3244 278.0906 0011912 165.3441 331.1872 14.72179979153361
NOAA-18
1 28654U 05018A   25109.80126641  .00000337  00000-0  20230-3 0  9997
2 28654  98.8426 189.8471 0013048 273.1232  86.8448 14.13579092 26577
CO-58
1 28895U 05043F   25108.95495177  .00003226  00000-0  53599-3 0  9994
2 28895  98.2417 252.6892 0015860 110.3905 249.9006 14.70773511 39589
CO-65
1 32785U 08021C   25109.18179762  .00009087  00000-0  66542-3 0  9994
2 32785  97.7831  80.0007 0011234  37.2824 322.9179 15.03745369921428
AAUSAT2
1 32788U 08021F   25109.44029948  .00339152  00000-0  23902-2 0  9997
2 32788  97.6004 105.4654 0009138 131.0434 229.1620 15.73053822925428
CO-66
1 32791U 08021J   25109.42099672  .00019663  00000-0  99237-3 0  9997
2 32791  97.7257  88.3848 0004179  24.6892 335.4540 15.17146624922815
RS-30
1 32953U 08025A   25109.86109027  .00000053  00000-0  30646-3 0  9997
2 32953  82.4999 258.7197 0020107 154.5186 205.6889 12.43162663767231
NOAA-19
1 33591U 09005A   25109.79945693  .00000305  00000-0  18673-3 0  9990
2 33591  99.0008 174.2112 0014531 144.3509 215.8636 14.13343713834935
SRMSAT
1 37841U 11058D   25109.20150640  .00000549  00000-0  15476-3 0  9997
2 37841  19.9709 105.4543 0011646 218.9020 211.9250 14.11413617698060
ZACUBE-1
1 39417U 13066B   25108.82928454  .00007865  00000-0  69233-3 0  9990
2 39417  97.7763  66.1542 0042977 222.8402 136.9468 14.96050736617178
Delfi-N3xt
1 39428U 13066N   25108.30996138  .00008419  00000-0  87324-3 0  9996
2 39428  97.8354  26.5807 0086385 171.3118 188.9618 14.87463156611480
GOMX-1
1 39430U 13066Q   25109.55354247  .00003162  00000-0  49745-3 0  9991
2 39430  97.6900 331.3378 0132969 356.4421   3.5826 14.67400786607926
LO-74
1 39440U 13066AA  25108.82417224  .00007549  00000-0  77160-3 0  9991
2 39440  97.8458  53.7721 0062612 352.6982   7.3316 14.89394677614931
AO-73
1 39444U 13066AE  25109.11390779  .00010620  00000-0  81334-3 0  9995
2 39444  97.7717  70.8839 0040615 198.7030 161.2704 15.01386194616454
DTUSAT-2
1 40030U 14033W   25109.39335563  .00012005  00000-0  79685-3 0  9998
2 40030  98.0522  78.7819 0007720 225.2603 134.7996 15.07374294589194
EO-80
1 40032U 14033Y   25109.41618709  .00010456  00000-0  69342-3 0  9996
2 40032  98.0401  78.5324 0009183 159.9961 200.1628 15.07437439589186
LILACSAT-2
1 40908U 15049K   25109.48052761  .00016726  00000-0  45604-3 0  9994
2 40908  97.5109 128.6311 0008826 357.2544   2.8650 15.37498060530372
IO-86
1 40931U 15052B   25038.81889873  .00001817  00000-0  15548-3 0  9993
2 40931   6.0001 108.1159 0012838 187.7041 172.2889 14.78568669506492
Horyu-4
1 41340U 16012D   25109.32706923  .00031401  00000-0  91358-3 0  9999
2 41340  30.9959 115.9891 0008722 241.8945 118.0819 15.34184918504905
Lapan A3
1 41603U 16040E   25109.86853020  .00005832  00000-0  20654-3 0  9992
2 41603  97.1394 116.4776 0013177  90.8947 269.3803 15.29408227490034
CAS-2T
1 41847U 16066G   25108.82976628  .00001527  00000-0  22703-3 0  9999
2 41847  98.4219 183.7375 0346121 335.2485  23.2432 14.43339476443551
CAS-4B
1 42759U 17034B   25109.50601976  .00072357  00000-0  98232-3 0  9994
2 42759  43.0087 264.8190 0020020 293.6430  66.2331 15.56479949434621
CAS-4A
1 42761U 17034D   25109.50984721  .00078468  00000-0  10297-2 0  9992
2 42761  43.0122 262.4130 0021348 297.9585  61.9117 15.57323088434643
TechnoSat
1 42829U 17042E   25109.53142170  .00005438  00000-0  42577-3 0  9997
2 42829  97.3932 280.6817 0015564  92.2666 268.0341 15.01315220423063
AO-91
1 43017U 17073E   25108.44273200  .00012357  00000-0  64507-3 0  9994
2 43017  97.5327 340.5433 0174855 344.7667  14.8331 15.03725432401376
S-Net D
1 43186U 18014G   25109.19453393  .00008084  00000-0  48473-3 0  9999
2 43186  97.5665  12.6360 0010729  49.7881 310.4287 15.11175343394615
S-Net B
1 43187U 18014H   25109.53036617  .00008188  00000-0  49101-3 0  9998
2 43187  97.5668  12.9374 0011298  44.1327 316.0802 15.11162590394663
S-Net A
1 43188U 18014J   25109.19509529  .00008142  00000-0  48805-3 0  9998
2 43188  97.5675  12.7491 0011214  46.2315 313.9841 15.11180953394615
S-Net C
1 43189U 18014K   25109.20157653  .00008345  00000-0  50030-3 0  9996
2 43189  97.5690  12.7609 0012512  38.2137 321.9977 15.11154349393167
Ten-Koh
1 43677U 18084G   25109.84633235  .00003973  00000-0  32216-3 0  9998
2 43677  98.0934 280.0843 0009191  91.8134 268.4141 15.00265070352634
PO-101
1 43678U 18084H   25109.83017909  .00004731  00000-0  40525-3 0  9997
2 43678  98.1017 284.0330 0010247  97.0129 263.2258 14.98030478352785
QO-100
1 43700U 18090A   25109.88030708  .00000150  00000-0  00000+0 0  9998
2 43700   0.0183 237.5351 0001826 187.1263 126.2874  1.00269436 23678
MinXSS-2
1 43758U 18099A   25109.14494107  .00021236  00000-0  88190-3 0  9994
2 43758  97.5050 175.0711 0010939 341.8158  18.2687 15.23796381349136
AO-95
1 43770U 18099N   25109.12376778  .00014201  00000-0  73903-3 0  9999
2 43770  97.4961 167.8040 0011394  39.3510 320.8549 15.16087300348753
RANGE-A
1 43773U 18099R   25109.07126367  .00006828  00000-0  44105-3 0  9991
2 43773  97.4537 158.9712 0011690  17.7970 342.3666 15.08494147348459
MOVE-II
1 43780U 18099Y   25109.16821599  .00154646  00000-0  20671-2 0  9991
2 43780  97.4682 181.6240 0002662 255.5604 104.5356 15.57511560349753
SNUSat 2
1 43782U 18099AA  25109.12715636  .00010186  00000-0  56921-3 0  9991
2 43782  97.4644 164.9700 0011055 338.4717  21.6048 15.13641515348718
SnugLite
1 43784U 18099AC  25109.09882343  .00013676  00000-0  70680-3 0  9994
2 43784  97.4461 164.4058 0002642   0.0748   0.0484 15.16389954348833
ITASat 1
1 43786U 18099AE  25109.60734478  .00009817  00000-0  57147-3 0  9993
2 43786  97.4616 165.0956 0015026  29.5158 330.6918 15.12135716348758
EAGLET 1
1 43790U 18099AJ  25109.15326869  .00006679  00000-0  43126-3 0  9994
2 43790  97.4816 164.7684 0012279  14.2583 345.8990 15.08515302348317
ESEO
1 43792U 18099AL  25108.72220649  .00002863  00000-0  22046-3 0  9996
2 43792  97.4545 158.2965 0011196 354.6626   5.4478 15.02378138348031
CSIM
1 43793U 18099AM  25108.75443310  .00136837  00000-0  18284-2 0  9999
2 43793  97.4869 183.3645 0005379 271.3853  88.6786 15.57572524349534
JO-97
1 43803U 18099AX  25109.11093224  .00016399  00000-0  77649-3 0  9998
2 43803  97.4709 168.6834 0006345 332.3781  27.7116 15.19397233348953
Suomi 100
1 43804U 18099AY  25109.11189698  .00014793  00000-0  74542-3 0  9995
2 43804  97.4772 168.1186 0011455 332.4120  27.6505 15.17209920348892
ISAT
1 43879U 18111D   25109.24723008  .00029117  00000-0  10799-2 0  9994
2 43879  97.5978  22.5845 0010443  33.5736 326.6163 15.27513071343833
UWE-4
1 43880U 18111E   25109.23205886  .00023284  00000-0  95865-3 0  9991
2 43880  97.5920  21.3864 0013998  39.7846 320.4415 15.24034766343803
Sparrow
1 43881U 18111F   25109.33364903  .00029595  00000-0  10619-2 0  9993
2 43881  97.6112  25.3604 0009836  67.4224 292.8055 15.28605035343953
Prox-1
1 44339U 19036A   25109.15281403  .00015301  00000-0  20051-2 0  9993
2 44339  23.9973  39.3068 0007020 207.1895 152.8235 14.78648930310480
SONATE
1 44400U 19038Q   25108.04874545  .00141273  00000-0  10001-2 0  9998
2 44400  97.6999 128.7330 0009286  96.3120 263.9201 15.73501451321262
Taurus 1
1 44530U 19059C   25109.86025291  .00011837  00000-0  22151-2 0  9993
2 44530  98.6005 246.8918 0010737 187.9145 172.1888 14.64969758296514
